Find Starlink 11332

NORAD ID: 61539 Int'l Des: 2024-184 Owner: SPXS Country: US Constellation: starlink operational
LEOCIRCULAR

リアルタイム位置

3D地球を読み込み中...

Starlink 11332について

説明を読み込み中...

次回通過

Passes for default location (London). Set your location on the main map for personalized predictions.

高度履歴

Loading altitude history...

軌道要素

1 61539U 24184H 26126.51482355 -.00017927 00000-0 -14306-3 0 9998
2 61539 53.1590 310.9140 0002648 148.1377 211.9801 15.69763295 89505
Epoch: May 6, 2026 • Age: 8 hours

現在のステータス

高度 361.0 km
速度 7.69 km/s
衛星直下点 15.19°N, 155.16°E
打ち上げ日 Oct 15, 2024
運用期間 1.5 years
タイプ internet

技術仕様

分類 Payload
質量 960.00 kg
乾燥質量 910.00 kg
総質量 960.00 kg
長さ 0.30 m
直径 4.10 m
スパン 29.00 m
形状 Box + pan
製造者 SPXS
バスタイプ Starlink V2MD
フェーズステータス In Orbit
所有者/国 SPXS/US

Most Searched